[Date Prev][Date Next][Thread Prev][Thread Next] - [Date Index][Thread Index][Author Index]

2 Line ISS Keps 12-9



ISS
1 25544U 98067A   05343.02371528  .00014250  00000-0  10698-3 0  9082
2 25544 051.6451 084.8439 0009496 020.1783 326.8853 15.72853894403193
----
Via the sarex mailing list at AMSAT.ORG courtesy of AMSAT-NA.
To unsubscribe, send "unsubscribe sarex" to Majordomo@amsat.org



AMSAT Top AMSAT Home